{"data":{"norad_id":67782,"intl_designator":"2026-030U","name":"KUIPER-00222","alt_names":[],"object_type":"PAYLOAD","status":"ACTIVE","operator":null,"country":"US","launch_date":"2026-02-12","launch_site_code":"FRGUI","launch_vehicle":null,"mission":null,"orbit_class":"UNKNOWN","rcs_meters":null,"size_class":null,"mass_kg":null,"dimensions":null,"purposes":[],"wikipedia_slug":null,"has_3d_model":false,"image_url":null,"decayed_at":null,"tle_current":{"epoch":"2026-05-24T21:45:30.695328Z","epoch_age_seconds":93849,"freshness":"FRESH","line1":"1 67782U 26030U   26144.90660527  .00014040  00000+0  18683-2 0  9999","line2":"2 67782  51.8990 223.7333 0000632 277.6089  82.4801 14.79898862 16638","mean_motion":14.79898862,"eccentricity":6.32e-5,"inclination_deg":51.899,"raan_deg":223.7333,"arg_perigee_deg":277.6089,"mean_anomaly_deg":82.4801,"bstar":0.0018683,"rev_number":1663,"period_min":97.303946707137,"perigee_km":629.20050473211,"apogee_km":630.08628817422,"semimajor_km":7007.7803964532,"source":"CELESTRAK","updated_at":"2026-05-25T13:38:07.260560Z"}}}